,

(GMT )
Lac Benoit

Weather History for CWDE - January, 2014

Change the Weather History Date:

Thursday, January 30, 2014

  Actual Average Record
Temperature  
Mean Temperature -8 °F -  
Max Temperature 12 °F - - ()
Min Temperature -27 °F - - ()
Degree Days  
Heating Degree Days 73    
Moisture  
Dew Point -13 °F    
Average Humidity 83    
Maximum Humidity 96    
Minimum Humidity 66    
Precipitation  
Precipitation 0.00 in - - ()
Sea Level Pressure  
Sea Level Pressure 29.83 in    
Wind  
Wind Speed 9 mph ()    
Max Wind Speed 24 mph    
Max Gust Speed -    
T = Trace of Precipitation, MM = Missing Value Source: Averaged Metar Reports

Daily Weather History Graph

Daily Weather History Graph

Search for Another Location

Airport or City:

Trip Planner

Search our weather history database for the weather conditions in past years. The results will help you decide how hot, cold, wet, or windy it might be!

Date:

Astronomy

Jan. 30, 2014 Rise Set
Actual Time 7:25 AM EST 4:30 PM EST
Civil Twilight 6:49 AM EST 5:06 PM EST
Nautical Twilight 6:08 AM EST 5:47 PM EST
Astronomical Twilight 5:29 AM EST 6:26 PM EST
Moon 6:44 AM EST (1/30) 4:45 PM EST (1/30)
Length of Visible Light 10h 17m
Length of Day
9h 04m
Waning Crescent, 0% of the Moon is Illuminated
Jan 30
Waning Crescent
Jan 30
New
Feb 6
First Quarter
Feb 14
Full
Feb 22
Last Quarter

Hourly Weather History & Observations

Time (EST) Temp. Windchill Dew Point Humidity Pressure Visibility Wind Dir Wind Speed Gust Speed Precip Events Conditions
12:00 AM -17.0 °F -34.8 °F -21.8 °F 79% 29.76 in - West 8.1 mph - N/A   Unknown
1:00 AM -23 °F - -28 °F 66% 29.80 in - Calm Calm - -  
1:00 AM -22.5 °F - -27.8 °F 77% 29.80 in - Calm Calm - N/A   Unknown
2:00 AM -26.1 °F - -31.4 °F 76% 29.84 in - South 2.3 mph - N/A   Unknown
3:00 AM -27.0 °F -38.7 °F -32.3 °F 76% 29.86 in - SE 3.5 mph - N/A   Unknown
4:00 AM -22.7 °F -38.5 °F -26.7 °F 82% 29.89 in - SE 5.8 mph - N/A   Unknown
5:00 AM -23.8 °F -41.6 °F -28.5 °F 79% 29.92 in - SE 6.9 mph - N/A   Unknown
6:00 AM -25.6 °F -41.9 °F -30.5 °F 78% 29.94 in - SSE 5.8 mph - N/A   Unknown
7:00 AM -27 °F - -31 °F 69% 29.98 in - SSE 6.9 mph - -  
7:00 AM -26.7 °F -45.1 °F -31.2 °F 79% 29.98 in - SSE 6.9 mph - N/A   Unknown
8:00 AM -27.6 °F -44.3 °F -33.2 °F 75% 29.98 in - SSE 5.8 mph - N/A   Unknown
9:00 AM -18.8 °F -39.5 °F -22.7 °F 82% 29.96 in - SSE 10.4 mph - N/A   Unknown
10:00 AM -14.8 °F -38.3 °F -19.8 °F 78% 29.96 in - SSE 15.0 mph - N/A   Unknown
11:00 AM -8.9 °F -29.9 °F -13.9 °F 79% 29.96 in - SE 13.8 mph - N/A   Unknown
12:00 PM -6.3 °F -28.9 °F -11.4 °F 79% 29.91 in - SSE 17.3 mph - N/A   Unknown
1:00 PM -3 °F - -8 °F 68% 29.88 in - SSE 20.7 mph - -  
1:00 PM -3.5 °F -26.9 °F -8.1 °F 80% 29.88 in - SSE 20.7 mph - N/A   Unknown
2:00 PM -1.3 °F -24.0 °F -4.9 °F 85% 29.85 in - SSE 20.7 mph - N/A   Unknown
3:00 PM -0.4 °F -21.7 °F -3.8 °F 85% 29.84 in - SSE 18.4 mph - N/A   Unknown
4:00 PM 1.4 °F -21.9 °F -1.5 °F 88% 29.79 in - SSE 24.2 mph - N/A   Unknown
5:00 PM 2.7 °F -18.8 °F 0.3 °F 90% 29.75 in - SSE 20.7 mph - N/A   Unknown
6:00 PM 3.9 °F -13.7 °F 2.1 °F 92% 29.73 in - SSE 13.8 mph - N/A   Unknown
7:00 PM 6 °F - 5 °F 93% 29.70 in - SSE 16.1 mph - -  
7:00 PM 6.4 °F -11.7 °F 5.0 °F 94% 29.70 in - SSE 16.1 mph - N/A   Unknown
8:00 PM 9.5 °F -8.3 °F 8.4 °F 95% 29.67 in - SSE 17.3 mph - N/A   Unknown
9:00 PM 10.8 °F -6.7 °F 9.7 °F 95% 29.64 in - SSE 17.3 mph - N/A   Unknown
10:00 PM 11.5 °F -5.8 °F 10.6 °F 96% 29.60 in - SSE 17.3 mph - N/A   Unknown
11:00 PM 12.2 °F -4.8 °F 11.3 °F 96% 29.56 in - South 17.3 mph - N/A   Unknown